星链-37005(STARLINK-37005)

导读

STARLINK-37005(NORAD编号68107)是SpaceX星链星座中的一颗低轨通信卫星,隶属于星链第二代组网批次。星链星座整体规划近1.2万颗卫星,该卫星运行在约550公里的近地轨道,采用Ku/Ka频段通信搭配星间激光链路,支持全球宽带接入服务。 它继承了星链卫星的标准化设计,配备氪离子推进系统与自主碰撞规避功能,单星质量约227-260kg,设计寿命5年。作为星链万颗在轨卫星集群的一员,为全球偏远地区、移动场景提供低延迟宽带服务,支撑星链“星链移动”手机直连业务的网络覆盖。

基本信息
目录编号:
68107
目录名称:
STARLINK-37005
国际标识:
2026-044G
轨道中心:
EARTH
卫星名称:
星链-37005
卫星全名:
星链-37005(STARLINK-37005)
卫星状态:
在轨 (已飞行189 天)
发射日期:
2026-03-08 UTC
国别 :
美国 (US)
星等 :
--
该卫星已列入 空间交会检测服务 Space Conjunction Data Service (SCDS) ,当前飞行风险评估等级: 无高风险
轨道信息
数据来源 国际轨道数据
星历时间: 2026-09-13T04:44:26+0800
12小时前
查看轨道信息
半长轴: 6843.67km
偏心率: 0.000203
轨道倾角: 97.285°
近地点辐角 92.755°
升交点赤经 214.863°
平近点角 267.393°
近地点: 464.143km
远地点: 466.923km
周期: 93.906分钟
每日圈数: 15.334486
详细信息
固有亮度:
5
最大亮度:
2.5
卫星平台:
Starlink V1.0
覆盖范围:
全球
运营商:
太空探索技术公司
运营商所在国:
美国
制造商(研发单位):
太空探索技术公司
制造商所在国:
美国
使用方式:
暂无
卫星简介
Starlink 计划是 SpaceX 推出的全球卫星互联网项目,通过发射低轨道卫星,为全球尤其是偏远地区提供高速、低延迟的互联网服务。自 2019 年起,Starlink 已部署数千颗卫星,旨在缩小全球数字鸿沟,推动互联网普及。该项目还为军事、航空等行业提供通信支持,带来广泛经济效益。
2D轨道图
3D轨道图
轨道高度分析图
轨道倾角分析图
轨道综合分析图
查看轨道综合分析图
交会数据列表
事件ID 空间交会对象 最接近时刻(TCA) 交会距离 交会风险概率(CRP) 交会风险指数(CRI) 操作
CDM_260915-000006-566406-810721
2026-09-15T
00:00:04+0000
0.909 km
远距离
2.823545E-5 中风险 0.64
CDM_260915-022106-566406-810721
2026-09-15T
02:21:01+0000
1.773 km
极远距离
3.058893E-6 低风险 0.45
CDM_260914-012805-301906-810721
2026-09-14T
01:28:42+0000
1.984 km
极远距离
2.520765E-6 低风险 0.43
CDM_260911-171905-912106-810725
2026-09-11T
17:19:38+0000
2.174 km
极远距离
2.368849E-6 低风险 0.42
CDM_260914-062505-083406-810721
2026-09-14T
06:25:48+0000
2.852 km
极远距离
1.42532E-6 低风险 0.38
CDM_260913-144004-842806-810721
2026-09-13T
14:40:20+0000
2.939 km
极远距离
1.368294E-6 低风险 0.38
CDM_260915-013406-566406-810721
2026-09-15T
01:34:02+0000
2.637 km
极远距离
1.263966E-6 低风险 0.37
CDM_260913-115004-788406-810721
2026-09-13T
11:50:56+0000
2.760 km
极远距离
1.263518E-6 低风险 0.37
与全量物体交会距离演化趋势
与全量物体交会风险概率演化趋势